,,,PA_Meas_PMT16A,,PR_Meas_QMR101_102,,RH_Meas_QMH101,,SR_Meas_QMS101,,TA_Meas_QMH101,,GenWind,,GenWind,
date,time,status,PA,status,PR,status,RH,status,SR,status,TA,status,DirAvg,status,SpdAvg,
2010-03-01, 00:00:04,VALID,1002.94,VALID,0,VALID,88.3892,VALID,0,VALID,23.4263,VALID,304,VALID,0,
2010-03-01, 00:01:04,VALID,1002.93,VALID,0,VALID,88.618,VALID,0,VALID,23.428,VALID,304,VALID,0,
2010-03-01, 00:02:04,VALID,1002.95,VALID,0,VALID,88.8774,VALID,0,VALID,23.389,VALID,304,VALID,0.330859,
2010-03-01, 00:03:04,VALID,1002.94,VALID,0,VALID,89.4649,VALID,0,VALID,23.4085,VALID,305,VALID,0.724609,
2010-03-01, 00:04:04,VALID,1002.94,VALID,0,VALID,89.5489,VALID,0,VALID,23.389,VALID,302,VALID,0.724219,
2010-03-01, 00:05:04,VALID,1002.92,VALID,0,VALID,89.8083,VALID,0.112286,VALID,23.389,VALID,289,VALID,0.375391,
2010-03-01, 00:06:04,VALID,1002.91,VALID,0,VALID,89.9303,VALID,0,VALID,23.3677,VALID,289,VALID,0.0308594,
2010-03-01, 00:07:04,VALID,1002.95,VALID,0,VALID,89.8617,VALID,0,VALID,23.3287,VALID,289,VALID,0,
2010-03-01, 00:08:04,VALID,1002.91,VALID,0,VALID,89.938,VALID,0,VALID,23.3305,VALID,289,VALID,0,
2010-03-01, 00:09:04,VALID,1002.89,VALID,0,VALID,90.0753,VALID,0,VALID,23.3305,VALID,289,VALID,0.258203,
2010-03-01, 00:10:04,VALID,1002.91,VALID,0,VALID,90.3652,VALID,0,VALID,23.35,VALID,256,VALID,0.654297,
2010-03-01, 00:11:04,VALID,1002.84,VALID,0,VALID,90.3957,VALID,0,VALID,23.389,VALID,254,VALID,0.715625,
2010-03-01, 00:12:04,VALID,1002.85,VALID,0,VALID,90.3576,VALID,0,VALID,23.4085,VALID,278,VALID,0.617188,
2010-03-01, 00:13:04,VALID,1002.86,VALID,0,VALID,90.35,VALID,0,VALID,23.4475,VALID,298,VALID,0.8,
2010-03-01, 00:14:04,VALID,1002.82,VALID,0,VALID,90.3118,VALID,0,VALID,23.4475,VALID,298,VALID,0.439844,
2010-03-01, 00:15:04,VALID,1002.83,VALID,0,VALID,90.2508,VALID,0,VALID,23.428,VALID,298,VALID,0,
2010-03-01, 00:16:04,VALID,1002.78,VALID,0,VALID,90.2966,VALID,0,VALID,23.4085,VALID,298,VALID,0,
2010-03-01, 00:17:04,VALID,1002.74,VALID,0,VALID,90.3652,VALID,0,VALID,23.389,VALID,197,VALID,0.453906,
2010-03-01, 00:18:04,VALID,1002.74,VALID,0,VALID,90.5254,VALID,0,VALID,23.389,VALID,164,VALID,0.788281,
2010-03-01, 00:19:04,VALID,1002.73,VALID,0,VALID,90.4644,VALID,0,VALID,23.4085,VALID,154,VALID,0.841406,
2010-03-01, 00:20:04,VALID,1002.71,VALID,0,VALID,90.4873,VALID,0,VALID,23.4085,VALID,159,VALID,0.905859,
2010-03-01, 00:21:04,VALID,1002.72,VALID,0,VALID,90.3347,VALID,0,VALID,23.4085,VALID,172,VALID,0.765625,
2010-03-01, 00:22:04,VALID,1002.67,VALID,0,VALID,90.0219,VALID,0,VALID,23.4085,VALID,179,VALID,0.765625,
2010-03-01, 00:23:04,VALID,1002.67,VALID,0,VALID,90.0524,VALID,0,VALID,23.428,VALID,185,VALID,0.568359,
2010-03-01, 00:24:04,VALID,1002.68,VALID,0,VALID,89.8464,VALID,0,VALID,23.428,VALID,186,VALID,0.335547,
2010-03-01, 00:25:04,VALID,1002.66,VALID,0,VALID,89.7014,VALID,0,VALID,23.4475,VALID,170,VALID,0.855859,
2010-03-01, 00:26:04,VALID,1002.64,VALID,0,VALID,89.2742,VALID,0,VALID,23.4085,VALID,152,VALID,1.3543,
2010-03-01, 00:27:04,VALID,1002.63,VALID,0,VALID,89.0224,VALID,0,VALID,23.389,VALID,152,VALID,1.25742,
2010-03-01, 00:28:04,VALID,1002.62,VALID,0,VALID,89.1826,VALID,0,VALID,23.3695,VALID,158,VALID,0.901563,
2010-03-01, 00:29:04,VALID,1002.59,VALID,0,VALID,89.5183,VALID,0,VALID,23.389,VALID,174,VALID,0.763281,
2010-03-01, 00:30:04,VALID,1002.62,VALID,0,VALID,89.5946,VALID,0,VALID,23.4475,VALID,183,VALID,0.598437,
2010-03-01, 00:31:04,VALID,1002.62,VALID,0,VALID,89.2818,VALID,0,VALID,23.4475,VALID,185,VALID,0.254297,
2010-03-01, 00:32:04,VALID,1002.62,VALID,0,VALID,89.0758,VALID,0,VALID,23.389,VALID,185,VALID,0.231641,
2010-03-01, 00:33:04,VALID,1002.62,VALID,0,VALID,89.1292,VALID,0,VALID,23.35,VALID,185,VALID,0,
2010-03-01, 00:34:04,VALID,1002.6,VALID,0,VALID,89.3276,VALID,0,VALID,23.3092,VALID,180,VALID,0.385938,
2010-03-01, 00:35:04,VALID,1002.61,VALID,0,VALID,89.3352,VALID,0,VALID,23.2915,VALID,173,VALID,0.6125,
2010-03-01, 00:36:04,VALID,1002.6,VALID,0,VALID,89.5183,VALID,0,VALID,23.2719,VALID,192,VALID,0.386719,
2010-03-01, 00:37:04,VALID,1002.59,VALID,0,VALID,89.4802,VALID,0,VALID,23.2719,VALID,188,VALID,0.347266,
2010-03-01, 00:38:04,VALID,1002.6,VALID,0,VALID,89.5717,VALID,0,VALID,23.2719,VALID,188,VALID,0.301562,
2010-03-01, 00:39:04,VALID,1002.62,VALID,0,VALID,89.5412,VALID,0,VALID,23.2507,VALID,123,VALID,0.746094,
2010-03-01, 00:40:04,VALID,1002.68,VALID,0,VALID,88.969,VALID,0,VALID,23.1726,VALID,111,VALID,1.48125,
2010-03-01, 00:41:04,VALID,1002.65,VALID,0,VALID,89.6938,VALID,0,VALID,23.1744,VALID,141,VALID,1.27656,
2010-03-01, 00:42:04,VALID,1002.61,VALID,0,VALID,89.5565,VALID,0,VALID,23.1549,VALID,131,VALID,0.75,
2010-03-01, 00:43:04,VALID,1002.58,VALID,0,VALID,89.6328,VALID,0,VALID,23.1354,VALID,131,VALID,0.146875,
2010-03-01, 00:44:04,VALID,1002.57,VALID,0,VALID,90.0066,VALID,0,VALID,23.1549,VALID,216,VALID,0.617188,
2010-03-01, 00:45:04,VALID,1002.55,VALID,0,VALID,90.1363,VALID,0,VALID,23.2117,VALID,230,VALID,0.740625,
2010-03-01, 00:46:04,VALID,1002.53,VALID,0,VALID,90.0219,VALID,0,VALID,23.2719,VALID,255,VALID,0.575391,
2010-03-01, 00:47:04,VALID,1002.56,VALID,0,VALID,89.5565,VALID,0,VALID,23.2524,VALID,253,VALID,0.104687,
2010-03-01, 00:48:04,VALID,1002.56,VALID,0,VALID,89.3886,VALID,0,VALID,23.1726,VALID,94,VALID,1.28398,
2010-03-01, 00:49:04,VALID,1002.52,VALID,0,VALID,88.8469,VALID,0.112286,VALID,23.0964,VALID,75,VALID,0.95,
2010-03-01, 00:50:04,VALID,1002.51,VALID,0,VALID,89.381,VALID,0,VALID,22.9988,VALID,71,VALID,0.971875,
2010-03-01, 00:51:04,VALID,1002.5,VALID,0,VALID,90.2431,VALID,0,VALID,22.9988,VALID,71,VALID,0.436328,
2010-03-01, 00:52:04,VALID,1002.48,VALID,0,VALID,90.5254,VALID,0,VALID,23.0183,VALID,71,VALID,0.101563,
2010-03-01, 00:53:04,VALID,1002.48,VALID,0,VALID,90.5483,VALID,0,VALID,23.0183,VALID,71,VALID,0.185547,
2010-03-01, 00:54:04,VALID,1002.44,VALID,0,VALID,90.6475,VALID,0,VALID,23.0378,VALID,120,VALID,0.687891,
2010-03-01, 00:55:04,VALID,1002.43,VALID,0,VALID,90.4263,VALID,0,VALID,23.0183,VALID,124,VALID,1.11016,
2010-03-01, 00:56:04,VALID,1002.44,VALID,0,VALID,90.5026,VALID,0,VALID,22.9403,VALID,124,VALID,0.955078,
2010-03-01, 00:57:04,VALID,1002.43,VALID,0,VALID,90.6475,VALID,0,VALID,22.9208,VALID,124,VALID,0.577344,
2010-03-01, 00:58:04,VALID,1002.42,VALID,0,VALID,90.6704,VALID,0,VALID,22.8818,VALID,124,VALID,0.298828,
2010-03-01, 00:59:04,VALID,1002.41,VALID,0,VALID,90.8077,VALID,0,VALID,22.8623,VALID,124,VALID,0.332812,
2010-03-01, 01:00:04,VALID,1002.4,VALID,0,VALID,91.0366,VALID,0,VALID,22.8427,VALID,108,VALID,0.55,
2010-03-01, 01:01:04,VALID,1002.4,VALID,0,VALID,91.1434,VALID,0,VALID,22.8427,VALID,96,VALID,0.626172,
2010-03-01, 01:02:04,VALID,1002.39,VALID,0,VALID,90.8154,VALID,0,VALID,22.8037,VALID,96,VALID,0.774609,
2010-03-01, 01:03:04,VALID,1002.36,VALID,0,VALID,91.0137,VALID,0,VALID,22.7647,VALID,96,VALID,0.273828,
2010-03-01, 01:04:04,VALID,1002.35,VALID,0,VALID,91.0443,VALID,0,VALID,22.7452,VALID,96,VALID,0,
2010-03-01, 01:05:04,VALID,1002.32,VALID,0,VALID,91.1206,VALID,0,VALID,22.7257,VALID,96,VALID,0,
2010-03-01, 01:06:04,VALID,1002.28,VALID,0,VALID,91.2655,VALID,0,VALID,22.6867,VALID,96,VALID,0,
2010-03-01, 01:07:04,VALID,1002.28,VALID,0,VALID,91.3494,VALID,0,VALID,22.6672,VALID,96,VALID,0,
2010-03-01, 01:08:04,VALID,1002.28,VALID,0,VALID,91.1129,VALID,0,VALID,22.6282,VALID,57,VALID,0.83125,
2010-03-01, 01:09:04,VALID,1002.26,VALID,0,VALID,91.7157,VALID,0,VALID,22.5874,VALID,57,VALID,0.655469,
2010-03-01, 01:10:04,VALID,1002.24,VALID,0,VALID,91.9674,VALID,0,VALID,22.6477,VALID,79,VALID,0.682813,
2010-03-01, 01:11:04,VALID,1002.26,VALID,0,VALID,91.6775,VALID,0,VALID,22.6282,VALID,85,VALID,0.278125,
2010-03-01, 01:12:04,VALID,1002.23,VALID,0,VALID,91.8988,VALID,0,VALID,22.6477,VALID,88,VALID,0.241797,
2010-03-01, 01:13:04,VALID,1002.2,VALID,0,VALID,91.998,VALID,0,VALID,22.6477,VALID,89,VALID,0.363281,
2010-03-01, 01:14:04,VALID,1002.21,VALID,0,VALID,91.8988,VALID,0,VALID,22.6477,VALID,132,VALID,0.561328,
2010-03-01, 01:15:04,VALID,1002.21,VALID,0,VALID,91.8454,VALID,0,VALID,22.6282,VALID,153,VALID,0.429297,
2010-03-01, 01:16:04,VALID,1002.19,VALID,0,VALID,91.9751,VALID,0,VALID,22.6087,VALID,153,VALID,0.250391,
2010-03-01, 01:17:04,VALID,1002.2,VALID,0,VALID,91.9751,VALID,0,VALID,22.5892,VALID,153,VALID,0,
2010-03-01, 01:18:04,VALID,1002.17,VALID,0,VALID,91.8759,VALID,0,VALID,22.5696,VALID,153,VALID,0.128516,
2010-03-01, 01:19:04,VALID,1002.17,VALID,0,VALID,91.7157,VALID,0,VALID,22.5094,VALID,78,VALID,0.458594,
2010-03-01, 01:20:04,VALID,1002.17,VALID,0,VALID,91.586,VALID,0,VALID,22.4526,VALID,74,VALID,0.626172,
2010-03-01, 01:21:04,VALID,1002.13,VALID,0,VALID,92.1124,VALID,0,VALID,22.4331,VALID,74,VALID,0.754687,
2010-03-01, 01:22:04,VALID,1002.16,VALID,0,VALID,92.1734,VALID,0.112286,VALID,22.4509,VALID,74,VALID,0.382031,
2010-03-01, 01:23:04,VALID,1002.15,VALID,0,VALID,92.2268,VALID,0,VALID,22.4721,VALID,74,VALID,0.291406,
2010-03-01, 01:24:04,VALID,1002.14,VALID,0,VALID,92.0895,VALID,0,VALID,22.4314,VALID,74,VALID,0.0652344,
2010-03-01, 01:25:04,VALID,1002.17,VALID,0,VALID,92.0514,VALID,0,VALID,22.4331,VALID,74,VALID,0.0574219,
2010-03-01, 01:26:04,VALID,1002.14,VALID,0,VALID,92.2497,VALID,0,VALID,22.4331,VALID,77,VALID,0.376172,
2010-03-01, 01:27:04,VALID,1002.18,VALID,0,VALID,92.4252,VALID,0,VALID,22.4721,VALID,110,VALID,0.585547,
2010-03-01, 01:28:04,VALID,1002.17,VALID,0,VALID,92.532,VALID,0,VALID,22.5111,VALID,122,VALID,0.745703,
2010-03-01, 01:29:04,VALID,1002.16,VALID,0,VALID,92.6236,VALID,0,VALID,22.5696,VALID,126,VALID,0.915625,
2010-03-01, 01:30:04,VALID,1002.14,VALID,0,VALID,92.616,VALID,0,VALID,22.5892,VALID,127,VALID,0.724609,
2010-03-01, 01:31:04,VALID,1002.15,VALID,0,VALID,92.4863,VALID,0,VALID,22.6087,VALID,126,VALID,0.522266,
2010-03-01, 01:32:04,VALID,1002.11,VALID,0,VALID,91.914,VALID,0,VALID,22.4916,VALID,64,VALID,0.892969,
2010-03-01, 01:33:04,VALID,1002.1,VALID,0,VALID,92.2268,VALID,0,VALID,22.4526,VALID,71,VALID,0.806641,
2010-03-01, 01:34:04,VALID,1002.09,VALID,0,VALID,92.2192,VALID,0,VALID,22.4526,VALID,70,VALID,0.664063,
2010-03-01, 01:35:04,VALID,1002.07,VALID,0,VALID,92.2574,VALID,0,VALID,22.4331,VALID,70,VALID,0.173828,
2010-03-01, 01:36:04,VALID,1002.08,VALID,0,VALID,92.265,VALID,0,VALID,22.4136,VALID,70,VALID,0,
2010-03-01, 01:37:04,VALID,1002.09,VALID,0,VALID,92.204,VALID,0,VALID,22.3746,VALID,70,VALID,0,
2010-03-01, 01:38:04,VALID,1002.08,VALID,0,VALID,92.204,VALID,0,VALID,22.3551,VALID,70,VALID,0.0410156,
2010-03-01, 01:39:04,VALID,1002.1,VALID,0,VALID,92.2497,VALID,0,VALID,22.3551,VALID,62,VALID,0.814062,
2010-03-01, 01:40:04,VALID,1002.09,VALID,0,VALID,91.9293,VALID,0,VALID,22.2559,VALID,52,VALID,0.718359,
2010-03-01, 01:41:04,VALID,1002.08,VALID,0,VALID,92.1429,VALID,0,VALID,22.2186,VALID,52,VALID,0,
2010-03-01, 01:42:04,VALID,1002.05,VALID,0,VALID,91.9369,VALID,0,VALID,22.121,VALID,52,VALID,0,
2010-03-01, 01:43:04,VALID,1002.05,VALID,0,VALID,92.0361,VALID,0,VALID,22.0625,VALID,52,VALID,0,
2010-03-01, 01:44:04,VALID,1002.05,VALID,0,VALID,92.0819,VALID,0,VALID,22.004,VALID,52,VALID,0,
2010-03-01, 01:45:04,VALID,1002.06,VALID,0,VALID,92.3184,VALID,0,VALID,21.9828,VALID,52,VALID,0,
2010-03-01, 01:46:04,VALID,1002.06,VALID,0,VALID,92.5473,VALID,0,VALID,22.0235,VALID,52,VALID,0,
2010-03-01, 01:47:04,VALID,1002.03,VALID,0,VALID,92.5549,VALID,0,VALID,22.0625,VALID,52,VALID,0,
2010-03-01, 01:48:04,VALID,1002.03,VALID,0,VALID,92.5244,VALID,0,VALID,22.082,VALID,52,VALID,0,
2010-03-01, 01:49:04,VALID,1002.01,VALID,0,VALID,92.6541,VALID,0,VALID,22.1405,VALID,52,VALID,0,
2010-03-01, 01:50:04,VALID,1002.02,VALID,0,VALID,92.8143,VALID,0,VALID,22.199,VALID,52,VALID,0,
2010-03-01, 01:51:04,VALID,1002.05,VALID,0,VALID,92.9288,VALID,0,VALID,22.2771,VALID,52,VALID,0.00195313,
2010-03-01, 01:52:04,VALID,1001.98,VALID,0,VALID,93.0051,VALID,0,VALID,22.3356,VALID,52,VALID,0.239453,
2010-03-01, 01:53:04,VALID,1002,VALID,0,VALID,92.9974,VALID,0.112286,VALID,22.3746,VALID,52,VALID,0.120703,
2010-03-01, 01:54:04,VALID,1002.03,VALID,0,VALID,92.8983,VALID,0,VALID,22.3746,VALID,52,VALID,0,
2010-03-01, 01:55:04,VALID,1002.01,VALID,0,VALID,92.4557,VALID,0,VALID,22.2576,VALID,52,VALID,0.0117188,
2010-03-01, 01:56:04,VALID,1002.02,VALID,0,VALID,92.6999,VALID,0,VALID,22.2381,VALID,3,VALID,0.686719,
2010-03-01, 01:57:04,VALID,1002.01,VALID,0,VALID,92.7762,VALID,0.112286,VALID,22.2576,VALID,3,VALID,0.645703,
2010-03-01, 01:58:04,VALID,1002.04,VALID,0,VALID,92.6541,VALID,0,VALID,22.1779,VALID,353,VALID,0.590625,
2010-03-01, 01:59:04,VALID,1002.01,VALID,0,VALID,92.7762,VALID,0,VALID,22.2186,VALID,353,VALID,0.351953,
2010-03-01, 02:00:04,VALID,1002.01,VALID,0,VALID,92.7457,VALID,0,VALID,22.2186,VALID,353,VALID,0.112891,
2010-03-01, 02:01:04,VALID,1002.01,VALID,0,VALID,92.7075,VALID,0,VALID,22.1795,VALID,353,VALID,0,
2010-03-01, 02:02:04,VALID,1001.99,VALID,0,VALID,92.7228,VALID,0,VALID,22.1405,VALID,353,VALID,0,
2010-03-01, 02:03:04,VALID,1001.98,VALID,0,VALID,92.738,VALID,0,VALID,22.1405,VALID,353,VALID,0,
2010-03-01, 02:04:04,VALID,1001.94,VALID,0,VALID,92.7609,VALID,0,VALID,22.1405,VALID,353,VALID,0,
2010-03-01, 02:05:04,VALID,1001.94,VALID,0,VALID,92.8754,VALID,0,VALID,22.16,VALID,353,VALID,0,
2010-03-01, 02:06:04,VALID,1001.97,VALID,0,VALID,92.9974,VALID,0,VALID,22.2186,VALID,353,VALID,0,
2010-03-01, 02:07:04,VALID,1001.94,VALID,0,VALID,93.0203,VALID,0,VALID,22.2576,VALID,353,VALID,0,
2010-03-01, 02:08:04,VALID,1001.91,VALID,0,VALID,93.0737,VALID,0,VALID,22.2966,VALID,353,VALID,0,
2010-03-01, 02:09:04,VALID,1001.92,VALID,0,VALID,93.0203,VALID,0,VALID,22.2754,VALID,353,VALID,0,
2010-03-01, 02:10:05,VALID,1001.93,VALID,0,VALID,92.9211,VALID,0,VALID,22.2771,VALID,353,VALID,0,
2010-03-01, 02:11:05,VALID,1001.97,VALID,0,VALID,92.8754,VALID,0,VALID,22.2576,VALID,353,VALID,0,
2010-03-01, 02:12:05,VALID,1001.95,VALID,0,VALID,92.7762,VALID,0,VALID,22.1795,VALID,353,VALID,0.538672,
2010-03-01, 02:13:05,VALID,1001.91,VALID,0,VALID,93.1653,VALID,0,VALID,22.2186,VALID,353,VALID,0.445703,
2010-03-01, 02:14:05,VALID,1001.89,VALID,0,VALID,93.2645,VALID,0,VALID,22.2771,VALID,353,VALID,0.378906,
2010-03-01, 02:15:05,VALID,1001.89,VALID,0,VALID,93.2874,VALID,0,VALID,22.2754,VALID,353,VALID,0.149219,
2010-03-01, 02:16:05,VALID,1001.89,VALID,0,VALID,93.2034,VALID,0,VALID,22.3161,VALID,353,VALID,0,
2010-03-01, 02:17:05,VALID,1001.87,VALID,0,VALID,92.822,VALID,0,VALID,22.2186,VALID,353,VALID,0,
2010-03-01, 02:18:05,VALID,1001.88,VALID,0,VALID,92.9364,VALID,0,VALID,22.1795,VALID,353,VALID,0,
2010-03-01, 02:19:05,VALID,1001.9,VALID,0,VALID,92.9974,VALID,0,VALID,22.16,VALID,353,VALID,0,
2010-03-01, 02:20:05,VALID,1001.88,VALID,0,VALID,92.9669,VALID,0,VALID,22.1405,VALID,53,VALID,0.613672,
2010-03-01, 02:21:05,VALID,1001.84,VALID,0,VALID,92.7609,VALID,0,VALID,22.0625,VALID,106,VALID,0.825,
2010-03-01, 02:22:05,VALID,1001.85,VALID,0,VALID,92.8067,VALID,0,VALID,22.0057,VALID,106,VALID,0.519141,
2010-03-01, 02:23:05,VALID,1001.84,VALID,0,VALID,92.7838,VALID,0,VALID,21.9455,VALID,106,VALID,0.236719,
2010-03-01, 02:24:05,VALID,1001.83,VALID,0,VALID,92.8067,VALID,0,VALID,21.887,VALID,106,VALID,0.183203,
2010-03-01, 02:25:05,VALID,1001.81,VALID,0,VALID,92.8296,VALID,0,VALID,21.848,VALID,106,VALID,0.289844,
2010-03-01, 02:26:05,VALID,1001.78,VALID,0,VALID,92.8983,VALID,0,VALID,21.809,VALID,106,VALID,0.479688,
2010-03-01, 02:27:05,VALID,1001.78,VALID,0,VALID,92.9745,VALID,0,VALID,21.77,VALID,106,VALID,0.570313,
2010-03-01, 02:28:05,VALID,1001.75,VALID,0,VALID,93.0356,VALID,0,VALID,21.77,VALID,105,VALID,0.712891,
2010-03-01, 02:29:05,VALID,1001.75,VALID,0,VALID,93.2034,VALID,0.112286,VALID,21.77,VALID,105,VALID,0.443359,
2010-03-01, 02:30:05,VALID,1001.73,VALID,0,VALID,93.3026,VALID,0,VALID,21.8285,VALID,105,VALID,0.222656,
2010-03-01, 02:31:05,VALID,1001.72,VALID,0,VALID,93.2797,VALID,0,VALID,21.848,VALID,105,VALID,0.100391,
2010-03-01, 02:32:05,VALID,1001.74,VALID,0,VALID,93.2111,VALID,0,VALID,21.848,VALID,105,VALID,0,
2010-03-01, 02:33:05,VALID,1001.73,VALID,0,VALID,92.9364,VALID,0,VALID,21.7505,VALID,105,VALID,0,
2010-03-01, 02:34:05,VALID,1001.75,VALID,0,VALID,92.9135,VALID,0,VALID,21.692,VALID,74,VALID,0.522656,
2010-03-01, 02:35:05,VALID,1001.73,VALID,0,VALID,92.9822,VALID,0,VALID,21.653,VALID,34,VALID,0.630469,
2010-03-01, 02:36:05,VALID,1001.73,VALID,0,VALID,93.0966,VALID,0,VALID,21.653,VALID,27,VALID,0.726172,
2010-03-01, 02:37:05,VALID,1001.69,VALID,0,VALID,93.0508,VALID,0,VALID,21.614,VALID,27,VALID,0.609766,
2010-03-01, 02:38:05,VALID,1001.72,VALID,0,VALID,93.0356,VALID,0,VALID,21.575,VALID,27,VALID,0.721484,
2010-03-01, 02:39:05,VALID,1001.68,VALID,0,VALID,93.1043,VALID,0,VALID,21.5555,VALID,38,VALID,0.593359,
2010-03-01, 02:40:05,VALID,1001.67,VALID,0,VALID,93.2568,VALID,0,VALID,21.575,VALID,38,VALID,0.471484,
2010-03-01, 02:41:05,VALID,1001.68,VALID,0,VALID,93.2874,VALID,0,VALID,21.5945,VALID,38,VALID,0.640625,
2010-03-01, 02:42:05,VALID,1001.66,VALID,0,VALID,93.356,VALID,0,VALID,21.614,VALID,27,VALID,0.850391,
2010-03-01, 02:43:05,VALID,1001.66,VALID,0,VALID,93.4323,VALID,0,VALID,21.6725,VALID,25,VALID,0.898828,
2010-03-01, 02:44:05,VALID,1001.62,VALID,0,VALID,93.5086,VALID,0,VALID,21.731,VALID,7,VALID,0.684375,
2010-03-01, 02:45:05,VALID,1001.67,VALID,0,VALID,93.501,VALID,0,VALID,21.7505,VALID,4,VALID,0.277344,
2010-03-01, 02:46:05,VALID,1001.65,VALID,0,VALID,93.4552,VALID,0,VALID,21.77,VALID,4,VALID,0.475391,
2010-03-01, 02:47:05,VALID,1001.67,VALID,0,VALID,93.3179,VALID,0,VALID,21.731,VALID,4,VALID,0.423438,
2010-03-01, 02:48:05,VALID,1001.7,VALID,0,VALID,93.234,VALID,0,VALID,21.692,VALID,4,VALID,0.235547,
2010-03-01, 02:49:05,VALID,1001.72,VALID,0,VALID,93.1882,VALID,0,VALID,21.6335,VALID,4,VALID,0.160938,
2010-03-01, 02:50:05,VALID,1001.73,VALID,0,VALID,93.1882,VALID,0,VALID,21.6335,VALID,4,VALID,0,
2010-03-01, 02:51:05,VALID,1001.72,VALID,0,VALID,93.2416,VALID,0.112286,VALID,21.6335,VALID,4,VALID,0,
2010-03-01, 02:52:05,VALID,1001.72,VALID,0,VALID,93.4018,VALID,0,VALID,21.731,VALID,4,VALID,0.209766,
2010-03-01, 02:53:05,VALID,1001.74,VALID,0,VALID,93.4934,VALID,0,VALID,21.7895,VALID,4,VALID,0.383984,
2010-03-01, 02:54:05,VALID,1001.73,VALID,0,VALID,93.501,VALID,0,VALID,21.848,VALID,4,VALID,0.00585938,
2010-03-01, 02:55:05,VALID,1001.7,VALID,0,VALID,93.501,VALID,0,VALID,21.887,VALID,4,VALID,0,
2010-03-01, 02:56:05,VALID,1001.74,VALID,0,VALID,93.3942,VALID,0.112286,VALID,21.848,VALID,4,VALID,0,
2010-03-01, 02:57:05,VALID,1001.74,VALID,0,VALID,93.3713,VALID,0,VALID,21.848,VALID,5,VALID,0,
2010-03-01, 02:58:05,VALID,1001.71,VALID,0,VALID,93.3255,VALID,0,VALID,21.7895,VALID,86,VALID,1.05938,
2010-03-01, 02:59:05,VALID,1001.7,VALID,0,VALID,93.2492,VALID,0,VALID,21.7505,VALID,96,VALID,0.961328,
2010-03-01, 03:00:05,VALID,1001.68,VALID,0,VALID,93.1805,VALID,0,VALID,21.7115,VALID,103,VALID,0.745313,
2010-03-01, 03:01:05,VALID,1001.65,VALID,0,VALID,93.1119,VALID,0,VALID,21.6335,VALID,104,VALID,0.779297,
2010-03-01, 03:02:05,VALID,1001.66,VALID,0,VALID,93.1348,VALID,0,VALID,21.5945,VALID,105,VALID,0.7,
2010-03-01, 03:03:05,VALID,1001.63,VALID,0,VALID,93.2416,VALID,0,VALID,21.5945,VALID,103,VALID,0.677344,
2010-03-01, 03:04:05,VALID,1001.61,VALID,0,VALID,93.3255,VALID,0,VALID,21.614,VALID,102,VALID,0.734766,
2010-03-01, 03:05:05,VALID,1001.63,VALID,0,VALID,93.4171,VALID,0,VALID,21.6335,VALID,102,VALID,0.692969,
2010-03-01, 03:06:05,VALID,1001.61,VALID,0,VALID,93.4323,VALID,0,VALID,21.6725,VALID,102,VALID,0.660547,
2010-03-01, 03:07:05,VALID,1001.62,VALID,0,VALID,93.3789,VALID,0,VALID,21.6725,VALID,102,VALID,0.479297,
2010-03-01, 03:08:05,VALID,1001.61,VALID,0,VALID,93.3866,VALID,0,VALID,21.6725,VALID,102,VALID,0.202734,
2010-03-01, 03:09:05,VALID,1001.62,VALID,0,VALID,93.3179,VALID,0,VALID,21.6335,VALID,102,VALID,0,
2010-03-01, 03:10:05,VALID,1001.58,VALID,0,VALID,93.2797,VALID,0,VALID,21.614,VALID,102,VALID,0,
2010-03-01, 03:11:05,VALID,1001.59,VALID,0,VALID,93.3026,VALID,0,VALID,21.5928,VALID,102,VALID,0,
2010-03-01, 03:12:05,VALID,1001.57,VALID,0,VALID,93.4171,VALID,0,VALID,21.653,VALID,102,VALID,0,
2010-03-01, 03:13:05,VALID,1001.6,VALID,0,VALID,93.4018,VALID,0,VALID,21.6725,VALID,20,VALID,0.722266,
2010-03-01, 03:14:05,VALID,1001.57,VALID,0,VALID,93.4857,VALID,0,VALID,21.731,VALID,20,VALID,0.614453,
2010-03-01, 03:15:05,VALID,1001.56,VALID,0,VALID,93.4934,VALID,0,VALID,21.731,VALID,20,VALID,0.55625,
2010-03-01, 03:16:05,VALID,1001.52,VALID,0,VALID,93.5086,VALID,0,VALID,21.7505,VALID,20,VALID,0.521094,
2010-03-01, 03:17:05,VALID,1001.53,VALID,0,VALID,93.3942,VALID,0,VALID,21.7115,VALID,48,VALID,0.624609,
2010-03-01, 03:18:05,VALID,1001.52,VALID,0,VALID,93.4247,VALID,0,VALID,21.7115,VALID,56,VALID,0.69375,
2010-03-01, 03:19:05,VALID,1001.5,VALID,0,VALID,93.4018,VALID,0,VALID,21.692,VALID,56,VALID,0.416797,
2010-03-01, 03:20:05,VALID,1001.52,VALID,0,VALID,93.4018,VALID,0,VALID,21.6725,VALID,56,VALID,0,
2010-03-01, 03:21:05,VALID,1001.52,VALID,0,VALID,93.2874,VALID,0,VALID,21.653,VALID,56,VALID,0,
2010-03-01, 03:22:05,VALID,1001.53,VALID,0,VALID,93.1653,VALID,0.112286,VALID,21.5733,VALID,56,VALID,0.525,
2010-03-01, 03:23:05,VALID,1001.58,VALID,0,VALID,93.0737,VALID,0,VALID,21.497,VALID,34,VALID,0.533984,
2010-03-01, 03:24:05,VALID,1001.58,VALID,0,VALID,93.1577,VALID,0,VALID,21.4596,VALID,21,VALID,0.416797,
2010-03-01, 03:25:05,VALID,1001.6,VALID,0,VALID,93.4094,VALID,0.112286,VALID,21.5165,VALID,17,VALID,0.395312,
2010-03-01, 03:26:05,VALID,1001.6,VALID,0,VALID,93.4171,VALID,0.112286,VALID,21.536,VALID,17,VALID,0.285547,
2010-03-01, 03:27:05,VALID,1001.62,VALID,0,VALID,93.4094,VALID,0,VALID,21.536,VALID,17,VALID,0,
2010-03-01, 03:28:05,VALID,1001.59,VALID,0,VALID,93.4705,VALID,0,VALID,21.536,VALID,17,VALID,0.403125,
2010-03-01, 03:29:05,VALID,1001.57,VALID,0,VALID,93.5697,VALID,0,VALID,21.575,VALID,17,VALID,0.513281,
2010-03-01, 03:30:05,VALID,1001.6,VALID,0,VALID,93.6383,VALID,0,VALID,21.6351,VALID,22,VALID,0.443359,
2010-03-01, 03:31:05,VALID,1001.58,VALID,0,VALID,93.5773,VALID,0,VALID,21.6546,VALID,79,VALID,0.461719,
2010-03-01, 03:32:05,VALID,1001.58,VALID,0,VALID,93.5086,VALID,0,VALID,21.6351,VALID,79,VALID,0.501562,
2010-03-01, 03:33:05,VALID,1001.58,VALID,0,VALID,93.4628,VALID,0,VALID,21.6351,VALID,79,VALID,0.388672,
2010-03-01, 03:34:05,VALID,1001.62,VALID,0,VALID,93.4171,VALID,0,VALID,21.5961,VALID,79,VALID,0.249219,
2010-03-01, 03:35:05,VALID,1001.61,VALID,0,VALID,93.3637,VALID,0,VALID,21.5766,VALID,79,VALID,0.0742188,
2010-03-01, 03:36:05,VALID,1001.61,VALID,0,VALID,93.295,VALID,0,VALID,21.4986,VALID,77,VALID,0,
2010-03-01, 03:37:05,VALID,1001.62,VALID,0,VALID,93.3179,VALID,0,VALID,21.4775,VALID,77,VALID,0,
2010-03-01, 03:38:05,VALID,1001.63,VALID,0,VALID,93.4018,VALID,0,VALID,21.4986,VALID,77,VALID,0,
2010-03-01, 03:39:05,VALID,1001.62,VALID,0,VALID,93.5468,VALID,0,VALID,21.5165,VALID,77,VALID,0,
2010-03-01, 03:40:05,VALID,1001.61,VALID,0,VALID,93.6841,VALID,0,VALID,21.6156,VALID,77,VALID,0,
2010-03-01, 03:41:05,VALID,1001.6,VALID,0,VALID,93.7375,VALID,0,VALID,21.7326,VALID,111,VALID,0.397266,
2010-03-01, 03:42:05,VALID,1001.61,VALID,0,VALID,93.7299,VALID,0,VALID,21.7911,VALID,132,VALID,0.557031,
2010-03-01, 03:43:05,VALID,1001.63,VALID,0,VALID,93.7375,VALID,0,VALID,21.8106,VALID,136,VALID,0.539453,
2010-03-01, 03:44:05,VALID,1001.59,VALID,0,VALID,93.768,VALID,0,VALID,21.8692,VALID,136,VALID,0.502734,
2010-03-01, 03:45:05,VALID,1001.57,VALID,0,VALID,93.768,VALID,0,VALID,21.9065,VALID,136,VALID,0.45,
2010-03-01, 03:46:05,VALID,1001.56,VALID,0,VALID,93.7604,VALID,0,VALID,21.9455,VALID,136,VALID,0.437891,
2010-03-01, 03:47:05,VALID,1001.57,VALID,0,VALID,93.7146,VALID,0,VALID,21.965,VALID,136,VALID,0.559766,
2010-03-01, 03:48:05,VALID,1001.56,VALID,0,VALID,93.646,VALID,0,VALID,21.965,VALID,136,VALID,0.777734,
2010-03-01, 03:49:05,VALID,1001.56,VALID,0,VALID,93.6841,VALID,0,VALID,21.9845,VALID,129,VALID,0.96875,